Weather History for Dyersburg, TN

Change the Weather History Date:

Monday, January 23, 2012

  Actual Average Record
Temperature  
Mean Temperature 52 °F -  
Max Temperature 60 °F 44 °F 71 °F (2002)
Min Temperature 44 °F 29 °F 8 °F (2003)
Degree Days  
Heating Degree Days 13    
Growing Degree Days 2 (Base 50)    
Moisture  
Dew Point 38 °F    
Average Humidity 61    
Maximum Humidity 77    
Minimum Humidity 50    
Precipitation  
Precipitation 0.00 in - - ()
Sea Level Pressure  
Sea Level Pressure 29.88 in    
Wind  
Wind Speed 14 mph (WSW)    
Max Wind Speed 28 mph    
Max Gust Speed 34 mph    
Visibility 10 miles    
Events      
Averages and records for this station are not official NWS values.
T = Trace of Precipitation, MM = Missing Value Source: NWS Daily Summary

Daily Weather History Graph

Daily Weather History Graph

Search for Another Location

Airport:

Trip Planner

Search our weather history database for the weather conditions in past years. The results will help you decide how hot, cold, wet, or windy it might be!

Date:

Astronomy

Jan. 23, 2012 Rise Set
Actual Time 7:04 AM CST 5:14 PM CST
Civil Twilight 6:36 AM CST 5:42 PM CST
Nautical Twilight 6:05 AM CST 6:13 PM CST
Astronomical Twilight 5:35 AM CST 6:43 PM CST
Moon 7:02 AM CST (1/23) 5:59 PM CST (1/23)
Length of Visible Light 11h 05m
Length of Day
10h 10m
Waxing Crescent, 0% of the Moon is Illuminated
Jan 23
Waxing Crescent
Jan 30
First Quarter
Feb 7
Full
Feb 14
Last Quarter
Feb 21
New

Hourly Weather History & Observations

Time (CST) Temp. Windchill Dew Point Humidity Pressure Visibility Wind Dir Wind Speed Gust Speed Precip Events Conditions
12:15 AM 57.2 °F - 50.0 °F 77% 29.66 in 10.0 mi South 9.2 mph - N/A   Clear
12:35 AM 57.2 °F - 50.0 °F 77% 29.67 in 10.0 mi SSW 9.2 mph - N/A   Clear
12:55 AM 59.0 °F - 50.0 °F 72% 29.67 in 10.0 mi SSW 6.9 mph - N/A   Clear
1:15 AM 60.8 °F - 51.8 °F 72% 29.66 in 10.0 mi South 9.2 mph - N/A   Scattered Clouds
1:35 AM 60.8 °F - 51.8 °F 72% 29.66 in 10.0 mi South 11.5 mph 18.4 mph N/A   Overcast
1:55 AM 60.8 °F - 51.8 °F 72% 29.66 in 10.0 mi South 9.2 mph 16.1 mph N/A   Overcast
2:15 AM 59.0 °F - 51.8 °F 77% 29.67 in 10.0 mi SSW 10.4 mph 17.3 mph N/A   Overcast
2:35 AM 60.8 °F - 51.8 °F 72% 29.67 in 10.0 mi SSW 11.5 mph 18.4 mph N/A   Overcast
2:55 AM 59.0 °F - 50.0 °F 72% 29.67 in 10.0 mi SSW 11.5 mph 23.0 mph N/A   Overcast
3:15 AM 60.8 °F - 48.2 °F 63% 29.68 in 8.0 mi SW 19.6 mph 32.2 mph N/A   Overcast
3:35 AM 59.0 °F - 48.2 °F 67% 29.69 in 7.0 mi WSW 19.6 mph 28.8 mph N/A   Overcast
3:55 AM 57.2 °F - 46.4 °F 67% 29.71 in 7.0 mi WSW 27.6 mph 34.5 mph N/A   Mostly Cloudy
4:15 AM 55.4 °F - 42.8 °F 63% 29.72 in 10.0 mi WSW 21.9 mph 33.4 mph N/A   Partly Cloudy
4:55 AM 53.6 °F - 41.0 °F 62% 29.75 in 10.0 mi WSW 23.0 mph 32.2 mph N/A   Clear
5:15 AM 51.8 °F - 39.2 °F 62% 29.76 in 10.0 mi WSW 20.7 mph 26.5 mph N/A   Clear
5:35 AM 51.8 °F - 39.2 °F 62% 29.77 in 10.0 mi WSW 17.3 mph 24.2 mph N/A   Clear
5:55 AM 50.0 °F - 39.2 °F 66% 29.79 in 10.0 mi West 17.3 mph 24.2 mph N/A   Clear
6:15 AM 50.0 °F - 39.2 °F 66% 29.80 in 10.0 mi West 17.3 mph 26.5 mph N/A   Clear
6:35 AM 48.2 °F - 37.4 °F 66% 29.81 in 10.0 mi West 23.0 mph 31.1 mph N/A   Clear
7:15 AM 46.4 °F 39.2 °F 33.8 °F 62% 29.85 in 10.0 mi West 18.4 mph 28.8 mph N/A   Scattered Clouds
7:55 AM 44.6 °F 36.6 °F 32.0 °F 61% 29.90 in 10.0 mi West 19.6 mph 28.8 mph N/A   Clear
8:15 AM 44.6 °F 36.6 °F 30.2 °F 57% 29.92 in 10.0 mi West 19.6 mph 25.3 mph N/A   Clear
8:35 AM 44.6 °F 36.4 °F 32.0 °F 61% 29.93 in 10.0 mi West 20.7 mph 25.3 mph N/A   Clear
8:55 AM 46.4 °F 39.5 °F 30.2 °F 53% 29.94 in 10.0 mi West 17.3 mph 26.5 mph N/A   Clear
9:15 AM 46.4 °F 40.4 °F 30.2 °F 53% 29.97 in 10.0 mi West 13.8 mph 27.6 mph N/A   Clear
9:35 AM 46.4 °F 39.8 °F 30.2 °F 53% 29.98 in 10.0 mi West 16.1 mph 25.3 mph N/A   Clear
9:55 AM 46.4 °F 39.8 °F 30.2 °F 53% 29.99 in 10.0 mi West 16.1 mph 24.2 mph N/A   Clear
10:15 AM 48.2 °F - 30.2 °F 50% 30.00 in 10.0 mi West 15.0 mph 20.7 mph N/A   Scattered Clouds
10:35 AM 48.2 °F - 32.0 °F 54% 30.01 in 10.0 mi West 17.3 mph 24.2 mph N/A   Mostly Cloudy
10:55 AM 48.2 °F - 33.8 °F 58% 30.00 in 10.0 mi West 12.7 mph 23.0 mph N/A   Mostly Cloudy
11:15 AM 50.0 °F - 33.8 °F 54% 30.00 in 10.0 mi WSW 15.0 mph 20.7 mph N/A   Mostly Cloudy
11:35 AM 50.0 °F - 33.8 °F 54% 29.99 in 10.0 mi SW 13.8 mph 18.4 mph N/A   Partly Cloudy
11:55 AM 50.0 °F - 33.8 °F 54% 29.99 in 10.0 mi WSW 18.4 mph 24.2 mph N/A   Scattered Clouds
12:15 PM 48.2 °F - 33.8 °F 58% 29.99 in 10.0 mi SW 13.8 mph 21.9 mph N/A   Scattered Clouds
12:35 PM 48.2 °F - 33.8 °F 58% 29.98 in 10.0 mi WSW 13.8 mph 23.0 mph N/A   Partly Cloudy
12:55 PM 48.2 °F - 33.8 °F 58% 29.98 in 10.0 mi WSW 15.0 mph - N/A   Partly Cloudy
1:15 PM 51.8 °F - 35.6 °F 54% 29.97 in 10.0 mi West 16.1 mph 21.9 mph N/A   Scattered Clouds
1:35 PM 51.8 °F - 35.6 °F 54% 29.98 in 10.0 mi WSW 16.1 mph 21.9 mph N/A   Partly Cloudy
1:55 PM 51.8 °F - 35.6 °F 54% 29.98 in 10.0 mi WSW 16.1 mph 21.9 mph N/A   Partly Cloudy
2:35 PM 51.8 °F - 33.8 °F 50% 29.98 in 10.0 mi West 13.8 mph 18.4 mph N/A   Clear
2:55 PM 51.8 °F - 35.6 °F 54% 29.99 in 10.0 mi West 13.8 mph 17.3 mph N/A   Clear
3:15 PM 51.8 °F - 35.6 °F 54% 29.99 in 10.0 mi West 12.7 mph - N/A   Clear
3:35 PM 51.8 °F - 35.6 °F 54% 30.00 in 10.0 mi WSW 16.1 mph 19.6 mph N/A   Clear
3:55 PM 51.8 °F - 35.6 °F 54% 30.00 in 10.0 mi SW 9.2 mph - N/A   Clear
4:15 PM 51.8 °F - 35.6 °F 54% 30.01 in 10.0 mi SW 11.5 mph 20.7 mph N/A   Clear
4:35 PM 51.8 °F - 35.6 °F 54% 30.01 in 10.0 mi SW 9.2 mph - N/A   Clear
4:55 PM 50.0 °F - 33.8 °F 54% 30.02 in 10.0 mi SW 10.4 mph - N/A   Clear
5:15 PM 48.2 °F - 33.8 °F 58% 30.03 in 10.0 mi SW 10.4 mph - N/A   Clear
5:35 PM 48.2 °F - 33.8 °F 58% 30.03 in 10.0 mi SW 6.9 mph - N/A   Clear
5:55 PM 46.4 °F 41.5 °F 33.8 °F 62% 30.04 in 10.0 mi SW 10.4 mph - N/A   Clear
6:15 PM 46.4 °F 42.9 °F 33.8 °F 62% 30.04 in 10.0 mi SW 6.9 mph - N/A   Clear
6:35 PM 46.4 °F 42.9 °F 33.8 °F 62% 30.05 in 10.0 mi SW 6.9 mph - N/A   Clear
6:55 PM 46.4 °F 44.3 °F 33.8 °F 62% 30.05 in 10.0 mi SSW 4.6 mph - N/A   Clear
7:15 PM 46.4 °F 43.5 °F 32.0 °F 57% 30.06 in 10.0 mi SW 5.8 mph - N/A   Clear
7:55 PM 44.6 °F 42.2 °F 32.0 °F 61% 30.06 in 10.0 mi SW 4.6 mph - N/A   Clear
8:15 PM 42.8 °F 40.1 °F 30.2 °F 61% 30.07 in 10.0 mi SW 4.6 mph - N/A   Clear
8:35 PM 42.8 °F 40.1 °F 32.0 °F 66% 30.07 in 10.0 mi SW 4.6 mph - N/A   Clear
8:55 PM 44.6 °F 41.4 °F 32.0 °F 61% 30.07 in 10.0 mi SW 5.8 mph - N/A   Clear
9:15 PM 42.8 °F 40.1 °F 30.2 °F 61% 30.07 in 10.0 mi WSW 4.6 mph - N/A   Clear
9:35 PM 41.0 °F 36.4 °F 30.2 °F 65% 30.08 in 10.0 mi WSW 6.9 mph - N/A   Clear
9:55 PM 41.0 °F 36.4 °F 30.2 °F 65% 30.08 in 10.0 mi WSW 6.9 mph - N/A   Clear
10:15 PM 41.0 °F 36.4 °F 30.2 °F 65% 30.08 in 10.0 mi WSW 6.9 mph - N/A   Clear
10:35 PM 41.0 °F 36.4 °F 30.2 °F 65% 30.09 in 10.0 mi WSW 6.9 mph - N/A   Clear
10:55 PM 41.0 °F 36.4 °F 30.2 °F 65% 30.09 in 10.0 mi West 6.9 mph - N/A   Clear
11:15 PM 42.8 °F 39.3 °F 30.2 °F 61% 30.10 in 10.0 mi West 5.8 mph - N/A   Clear
11:35 PM 42.8 °F 40.1 °F 32.0 °F 66% 30.11 in 10.0 mi West 4.6 mph - N/A   Clear
11:55 PM 39.2 °F 35.0 °F 30.2 °F 70% 30.11 in 10.0 mi WSW 5.8 mph - N/A   Clear